This is the latest recevied weather packets stored in our database for station/object OE6JUE. If no packets are shown the sender has not sent any weather packets the latest 10 day(s).
| Time | Temp. | Humidity | Pressure | Rain* | Wind** | Luminosity | Snow |
|---|---|---|---|---|---|---|---|
| 1787905711 | 25.56° C | 51% | 1018.7 hPa | 0 mm | - | - | - |
| 1787905411 | 25.56° C | 52% | 1018.2 hPa | 0 mm | - | - | - |
| 1787905111 | 25.56° C | 52% | 1018.4 hPa | 0 mm | - | - | - |
| 1787904811 | 25.56° C | 51% | 1018.4 hPa | 0 mm | - | - | - |
| 1787904511 | 25.56° C | 51% | 1018.3 hPa | 0 mm | - | - | - |
| 1787904211 | 25.56° C | 51% | 1018.3 hPa | 0 mm | - | - | - |
| 1787903911 | 25.56° C | 51% | 1018.1 hPa | 0 mm | - | - | - |
| 1787903611 | 25.56° C | 52% | 1018.4 hPa | 0 mm | - | - | - |
| 1787903312 | 25° C | 53% | 1018.5 hPa | 0 mm | - | - | - |
| 1787903011 | 24.44° C | 53% | 1018.4 hPa | 0 mm | - | - | - |
| 1787902711 | 24.44° C | 54% | 1018.8 hPa | 0 mm | - | - | - |
| 1787902411 | 23.89° C | 55% | 1018.7 hPa | 0 mm | - | - | - |
| 1787902112 | 23.89° C | 53% | 1019 hPa | 0 mm | - | - | - |
| 1787901812 | 24.44° C | 53% | 1018.7 hPa | 0 mm | - | - | - |
| 1787901511 | 24.44° C | 53% | 1018.6 hPa | 0 mm | - | - | - |
| 1787901211 | 24.44° C | 54% | 1018.6 hPa | 0 mm | - | - | - |
| 1787900912 | 23.89° C | 53% | 1018.5 hPa | 0 mm | - | - | - |
| 1787900611 | 23.89° C | 54% | 1018.6 hPa | 0 mm | - | - | - |
| 1787900311 | 23.89° C | 55% | 1018.6 hPa | 0 mm | - | - | - |
| 1787900011 | 23.33° C | 55% | 1018.7 hPa | 0 mm | - | - | - |
| 1787899711 | 23.33° C | 55% | 1018.6 hPa | 0 mm | - | - | - |
| 1787899411 | 23.89° C | 55% | 1018.7 hPa | 0 mm | - | - | - |
| 1787899111 | 23.89° C | 56% | 1018.7 hPa | 0 mm | - | - | - |
| 1787898811 | 23.89° C | 56% | 1018.6 hPa | 0 mm | - | - | - |
| 1787898512 | 23.33° C | 57% | 1018.6 hPa | 0 mm | - | - | - |
* Rain latest hour (hover to see other rain measurements)
** Current wind speed in m/s (hover to see current wind gust speed)